[[{"header":{"parameterUnit":"m.s-1","parameterCategory":1,"la1":30.2991,"la2":30.254,"lo1":-89.0895,"lo2":-89.0444,"dy":0.0017,"dx":0.0017,"nx":28,"ny":28,"refTime":"2024-05-14T09:00:00:Z","depth":0,"parameterNumber":2,"parameterNumberName":"U-component_of_WINDS"},"data":[0,0,0,0,0,0,0,0,0,0,0,0,0,0,0,0,0,0,0,0,0,0,0,0,0,0,0,0,0,0,0,0,0,0,0,0,0,0,0,0,0,0,0,0,0,0,0,0,0,0,0,0,0,0,0,0,0,0,1.4809,1.481,0,1.4882,1.4883,1.4884,1.4865,1.4863,1.4862,1.486,1.4941,1.4945,1.4948,0,0,0,0,0,0,0,0,0,0,0,0,0,1.4663,1.4665,1.4809,1.481,1.4811,1.4882,1.4883,1.4884,1.4865,1.4863,1.4861,1.486,1.494,1.4944,1.4948,0,0,0,0,0,0,0,0,0,0,0,0,0,1.473,1.4666,1.4809,1.481,1.4811,1.4882,1.4883,1.4884,1.4865,1.4863,1.4861,1.4859,1.4939,1.4944,1.4949,1.5025,0,0,1.4965,1.4967,0,0,0,0,0,0,0,0,1.4726,1.4736,1.4809,1.481,1.4811,1.4862,1.4861,1.4932,1.4866,1.4845,1.486,1.4858,1.4917,1.4924,1.4943,1.5029,1.5033,1.4966,1.4969,1.4971,1.4973,0,0,0,0,0,0,0,1.4722,1.4732,1.4838,1.481,1.4811,1.481,1.4817,1.4874,1.4893,1.4846,1.4845,1.4854,1.4917,1.4938,1.4944,1.5034,1.4965,1.497,1.4973,1.4975,1.5191,1.5193,0,0,0,0,0,0,1.4715,1.4729,1.4836,1.484,1.4762,1.4814,1.4822,1.4848,1.4892,1.4896,1.4855,1.4853,1.493,1.4938,1.4947,1.5042,1.4971,1.4976,1.4979,1.5188,1.5192,1.5194,0,0,0,0,0,0,1.4712,1.4725,1.4833,1.4784,1.4798,1.4819,1.4848,1.485,1.4871,1.4898,1.4902,1.4872,1.4928,1.494,1.5006,1.5044,1.4978,1.4983,1.5185,1.5189,1.5193,1.523,0,0,0,0,0,0,1.4708,1.4724,1.4751,1.4785,1.48,1.4889,1.485,1.4853,1.4879,1.4876,1.4915,1.492,1.4927,1.4999,1.5012,1.505,1.4987,1.5182,1.5187,1.5192,1.5226,1.5235,1.5242,0,0,0,0,0,1.4703,1.4759,1.4752,1.4765,1.4834,1.4891,1.49,1.4905,1.4882,1.4911,1.493,1.4919,1.5038,1.5006,1.502,1.5061,1.518,1.5186,1.5191,1.5222,1.5233,1.5242,0,0,0,0,0,0,1.473,1.4763,1.4756,1.4825,1.4855,1.4887,1.4924,1.4916,1.4956,1.4951,1.4959,1.4968,1.5037,1.5055,1.5019,1.5139,1.5106,1.5115,1.5124,1.5135,1.5143,1.5138,1.4992,0,0,0,0,0,1.4744,1.4785,1.4812,1.487,1.4886,1.4902,1.4927,1.4929,1.4961,1.4975,1.4998,1.5032,1.5077,1.5107,1.515,1.5228,1.5239,1.5264,1.5272,1.5279,1.5287,1.5333,1.5346,1.5213,1.5213,1.5213,0,0,1.4774,1.4797,1.4822,1.4877,1.49,1.4945,1.4913,1.4961,1.4996,1.4983,1.5047,1.5066,1.5104,1.5178,1.5212,1.5196,1.5326,1.5286,1.5292,1.5296,1.534,1.5353,1.5364,1.5217,1.5216,1.5216,0,0,1.485,1.487,1.4922,1.4947,1.4982,1.4993,1.5006,1.504,1.5052,1.5116,1.5108,1.5151,1.5228,1.5257,1.5281,1.5373,1.5365,1.5387,1.5431,1.5476,1.5486,1.5496,1.5531,1.5543,1.5394,1.5395,1.5395,0,1.4883,1.4947,1.495,1.5,1.5025,1.5015,1.5069,1.5093,1.5143,1.5162,1.5143,1.5242,1.5267,1.5348,1.5371,1.5391,1.5408,1.5382,1.5484,1.5494,1.5502,1.5536,1.5549,1.5397,1.5397,1.5396,1.5396,0,1.4987,1.5032,1.507,1.5117,1.5147,1.5199,1.5212,1.5243,1.5243,1.5257,1.5326,1.5356,1.5406,1.5425,1.5426,1.5509,1.5498,1.5482,1.5449,1.5517,1.5549,1.5562,1.5401,1.54,1.5399,1.5398,0,0,1.5082,1.513,1.5144,1.5166,1.5207,1.5243,1.5296,1.5344,1.5372,1.5407,1.5453,1.552,1.5506,1.5535,1.5539,1.5578,1.5652,1.5558,1.5559,1.5576,1.5748,1.5761,1.5775,1.5647,1.565,1.5652,1.5745,0,1.5163,1.5254,1.5259,1.5343,1.5387,1.5379,1.5426,1.5457,1.5473,1.5515,1.5533,1.5581,1.5557,1.5575,1.5613,1.5635,1.5687,1.5628,1.5694,1.5696,1.5685,1.5791,1.5804,1.5891,1.5758,1.576,1.5761,0,1.527,1.5307,1.5394,1.5431,1.545,1.5491,1.5537,1.5576,1.5613,1.5622,1.5655,1.5655,1.5713,1.5678,1.576,1.572,1.5748,1.5763,1.5766,1.5774,1.5733,1.5803,1.5919,1.5932,1.578,1.5779,1.5777,0,1.5333,1.5405,1.5467,1.5486,1.553,1.556,1.558,1.5614,1.5644,1.5685,1.5705,1.5753,1.578,1.5819,1.5833,1.5805,1.5916,1.5881,1.5927,1.5927,1.5951,1.595,1.6074,1.5967,1.5967,1.5967,1.5966,0,1.5423,1.5478,1.5496,1.5535,1.5597,1.5605,1.5667,1.5686,1.5717,1.5762,1.5758,1.5801,1.5816,1.5863,1.5874,1.5943,1.5954,1.5966,1.5968,1.5966,1.5965,1.5985,1.598,1.597,1.5969,1.5969,1.5968,0,1.5504,1.5518,1.5586,1.5622,1.5632,1.5677,1.5709,1.5748,1.5763,1.582,1.5834,1.5859,1.5914,1.5932,1.5998,1.6006,1.6086,1.6083,1.6073,1.6074,1.612,1.6116,1.6263,1.6284,1.6161,1.6162,1.6163,0,1.5561,1.5603,1.5643,1.5672,1.5693,1.5739,1.5769,1.578,1.5812,1.5859,1.5893,1.5947,1.599,1.6078,1.6104,1.6156,1.6155,1.6203,1.6163,1.6161,1.6158,1.6156,1.6162,1.6211,1.6212,1.6213,1.6214,0,1.5662,1.5668,1.571,1.5756,1.5791,1.5828,1.5864,1.5888,1.5905,1.5942,1.5996,1.603,1.6098,1.6152,1.6205,1.6229,1.6226,1.6226,1.624,1.6239,1.6232,1.6239,1.6095,1.6223,1.6222,1.6222,1.6221,1.6221,1.5734,1.5772,1.5807,1.5855,1.5883,1.5917,1.5956,1.5976,1.6022,1.6076,1.6081,1.6141,1.6181,1.6251,1.6278,1.6328,1.6315,1.6334,1.6339,1.6344,1.6349,1.6224,1.6337,1.6337,1.6337,1.6337,1.6337,0,1.5837,1.5859,1.5903,1.5953,1.5992,1.5983,1.6024,1.6057,1.6109,1.6146,1.6189,1.6254,1.6307,1.6338,1.6393,1.6427,1.6427,1.6441,1.6439,1.6445,1.6356,1.634,1.644,1.644,1.644,1.644,1.644,1.644,1.5895,1.5959,1.5969,1.6048,1.6071,1.6128,1.6153,1.6185,1.6215,1.6287,1.633,1.635,1.6385,1.6443,1.6493,1.6501,1.6522,1.6538,1.6545,1.6462,1.6451,1.6441,1.6425,1.6542,1.6542,1.663,1.6631,1.6631]},{"header":{"parameterUnit":"m.s-1","parameterCategory":1,"la1":30.2991,"la2":30.254,"lo1":-89.0895,"lo2":-89.0444,"dy":0.0017,"dx":0.0017,"nx":28,"ny":28,"refTime":"2024-05-14T09:00:00:Z","depth":0,"parameterNumber":3,"parameterNumberName":"V-component_of_WINDS"},"data":[0,0,0,0,0,0,0,0,0,0,0,0,0,0,0,0,0,0,0,0,0,0,0,0,0,0,0,0,0,0,0,0,0,0,0,0,0,0,0,0,0,0,0,0,0,0,0,0,0,0,0,0,0,0,0,0,0,0,0.3479,0.3483,0,0.3818,0.3822,0.3826,0.3889,0.3886,0.3884,0.3881,0.4235,0.4246,0.4258,0,0,0,0,0,0,0,0,0,0,0,0,0,0.2892,0.2902,0.3479,0.3483,0.3487,0.3817,0.3822,0.3827,0.389,0.3886,0.3883,0.388,0.4231,0.4245,0.4259,0,0,0,0,0,0,0,0,0,0,0,0,0,0.3181,0.2906,0.3478,0.3558,0.3569,0.3816,0.3822,0.3828,0.389,0.3886,0.3882,0.3878,0.4226,0.4243,0.4261,0.4455,0,0,0.4316,0.4324,0,0,0,0,0,0,0,0,0.3164,0.3202,0.3542,0.3553,0.3565,0.3807,0.3745,0.4038,0.3891,0.3768,0.3881,0.3876,0.4096,0.4124,0.4197,0.4471,0.4486,0.4318,0.4328,0.4336,0.4341,0,0,0,0,0,0,0,0.3144,0.3188,0.3613,0.3547,0.3561,0.3579,0.3616,0.3801,0.3952,0.3779,0.3784,0.3823,0.4102,0.418,0.4206,0.4492,0.4317,0.4333,0.4344,0.4351,0.4944,0.4949,0,0,0,0,0,0,0.3109,0.3171,0.3602,0.3623,0.335,0.3593,0.3634,0.3734,0.395,0.3978,0.3826,0.3825,0.4151,0.4185,0.4219,0.4462,0.4336,0.4353,0.4363,0.4939,0.4945,0.495,0,0,0,0,0,0,0.3096,0.3147,0.3589,0.3399,0.3456,0.3608,0.3719,0.3743,0.3821,0.3985,0.4013,0.3878,0.4149,0.4193,0.4396,0.4475,0.4361,0.4377,0.4933,0.4941,0.4948,0.4948,0,0,0,0,0,0,0.3079,0.3142,0.3215,0.34,0.3466,0.3758,0.3724,0.3752,0.3851,0.3852,0.4041,0.4069,0.4149,0.4368,0.4413,0.4498,0.4391,0.4927,0.4936,0.4945,0.4942,0.4954,0.4965,0,0,0,0,0,0.3058,0.3203,0.3219,0.3271,0.3561,0.3763,0.3801,0.3889,0.3857,0.3934,0.4039,0.4063,0.4458,0.4389,0.444,0.4531,0.4922,0.4934,0.4945,0.4936,0.4952,0.4965,0,0,0,0,0,0,0.3026,0.3229,0.3249,0.3457,0.3592,0.3773,0.3872,0.3902,0.4051,0.4046,0.415,0.4193,0.4389,0.448,0.4399,0.473,0.4688,0.471,0.4665,0.4681,0.4692,0.4668,0.4406,0,0,0,0,0,0.3043,0.3188,0.3357,0.3525,0.3592,0.372,0.3811,0.3867,0.4011,0.407,0.419,0.4331,0.4488,0.4589,0.4741,0.4954,0.4998,0.5042,0.5053,0.5062,0.5081,0.5203,0.5225,0.4987,0.4987,0.4987,0,0,0.3081,0.3209,0.3294,0.3522,0.3633,0.3783,0.3768,0.3927,0.404,0.4094,0.4293,0.4386,0.4551,0.4759,0.4857,0.4841,0.5156,0.5076,0.5082,0.5097,0.5217,0.5239,0.5259,0.4995,0.4993,0.4992,0,0,0.3226,0.3336,0.3489,0.36,0.3768,0.3852,0.3888,0.4065,0.4129,0.4329,0.4373,0.451,0.4776,0.4892,0.4986,0.5175,0.5203,0.5221,0.5285,0.5402,0.5421,0.5439,0.5509,0.5532,0.5239,0.5239,0.5239,0,0.3252,0.3478,0.3564,0.3722,0.3822,0.3876,0.4033,0.4137,0.4347,0.4416,0.4393,0.4729,0.4844,0.5082,0.5127,0.52,0.5248,0.5202,0.5411,0.5429,0.5447,0.5515,0.5541,0.524,0.524,0.524,0.524,0,0.3503,0.3659,0.3763,0.3962,0.4073,0.423,0.4342,0.4445,0.4491,0.4578,0.4782,0.4921,0.5103,0.5163,0.521,0.5409,0.5393,0.5389,0.535,0.5469,0.5535,0.5562,0.5242,0.5242,0.5241,0.5241,0,0,0.3641,0.3885,0.3922,0.4014,0.4202,0.4326,0.4485,0.4661,0.4749,0.4891,0.503,0.5253,0.5251,0.5357,0.5417,0.552,0.5664,0.5504,0.551,0.5532,0.5894,0.5898,0.5927,0.5681,0.5687,0.5691,0.5881,0,0.3811,0.4096,0.4179,0.442,0.4566,0.4619,0.4758,0.489,0.4975,0.5113,0.5208,0.5366,0.535,0.5415,0.5518,0.5624,0.5738,0.5611,0.5815,0.5821,0.5775,0.5961,0.5966,0.6139,0.5907,0.5912,0.5915,0,0.4049,0.4194,0.4449,0.4619,0.4684,0.4808,0.4977,0.5107,0.5258,0.5313,0.5431,0.5482,0.5653,0.5601,0.5839,0.5751,0.5839,0.5903,0.5912,0.5938,0.5878,0.5995,0.6196,0.6223,0.5956,0.5953,0.595,0,0.4128,0.4387,0.4574,0.465,0.4853,0.4939,0.5027,0.5174,0.5275,0.5423,0.5491,0.5657,0.5749,0.5877,0.5973,0.5925,0.6204,0.6159,0.6257,0.6255,0.6317,0.6313,0.6538,0.6367,0.6367,0.6366,0.6365,0,0.4312,0.4467,0.4612,0.4727,0.4903,0.4996,0.5168,0.526,0.5389,0.5525,0.558,0.5706,0.5823,0.5965,0.6041,0.6228,0.6269,0.632,0.6339,0.6318,0.6312,0.638,0.6372,0.6373,0.6372,0.637,0.6369,0,0.4432,0.4534,0.4742,0.4916,0.4963,0.5085,0.5236,0.5351,0.5436,0.5608,0.5653,0.579,0.596,0.6067,0.6284,0.6335,0.6542,0.6555,0.6491,0.65,0.6594,0.6585,0.6875,0.6919,0.6714,0.6715,0.6717,0,0.4544,0.4664,0.4851,0.4944,0.5034,0.5184,0.5287,0.5384,0.5489,0.567,0.5764,0.5937,0.6082,0.6352,0.6472,0.6639,0.6659,0.6749,0.6685,0.666,0.6665,0.6658,0.6672,0.6761,0.6762,0.6764,0.6765,0,0.4734,0.4779,0.4924,0.5089,0.5209,0.5344,0.5478,0.5552,0.5671,0.5788,0.5962,0.6073,0.6294,0.6467,0.6644,0.6738,0.6774,0.6783,0.6816,0.6797,0.6756,0.6783,0.6524,0.6777,0.6776,0.6775,0.6775,0.6774,0.4857,0.4967,0.5115,0.5276,0.5386,0.551,0.5627,0.5727,0.5873,0.606,0.6108,0.6291,0.644,0.6681,0.6778,0.6924,0.6912,0.6958,0.6971,0.6981,0.6985,0.6729,0.6956,0.6956,0.6956,0.6956,0.6956,0,0.5053,0.515,0.5297,0.5482,0.5609,0.5627,0.5776,0.5882,0.6042,0.6177,0.6317,0.6518,0.6686,0.6818,0.699,0.7082,0.7103,0.7125,0.7121,0.7143,0.6984,0.6941,0.7105,0.7105,0.7105,0.7105,0.7105,0.7105,0.517,0.5358,0.542,0.5664,0.5761,0.5939,0.6024,0.6139,0.6247,0.6469,0.6608,0.6691,0.6826,0.7009,0.7164,0.7199,0.7262,0.7282,0.732,0.717,0.7154,0.7138,0.7098,0.7293,0.7294,0.7467,0.7469,0.747]}]]